Location: Stillwell
(40.4602°N, 82.0928°W)
Time: 09:40:18
(UTC-04:00)

Meteor 1-15 Rocket - Pass Details

Date: 25 May 2018
Orbit: 839 x 908 km, 81.2° (Epoch: 17 June)

Event Time Altitude Azimuth Distance (km) Brightness Sun altitude
Rises 22:46:27 0° 351° (N) 3,480 8.5 -18.2°
Reaches altitude 10° 22:48:55 10° 352° (N) 2,527 7.6 -18.5°
Maximum altitude 22:54:41 85° 80° (E) 868 4.2 -19.2°
Enters shadow 22:57:22 33° 168° (SSE) 1,405 4.9 -19.5°
